User: anonymous   Login
Location: Unspecified
(0.0000°N, 0.0000°E)
Time: 11:00:34
(UTC+00:00)
Language:

SRMSAT - Orbit

View from above orbital plane
View from above orbital plane
View from above satellite
View from above satellite

Ground track
Ground track

The orbit data is extracted from the following two-line orbital elements,

1 37841U 11058D   19141.50251358 +.00000300 +00000-0 +19823-4 0  9993
2 37841 019.9707 201.9118 0011642 247.0287 241.5241 14.10631908392617
Epoch (UTC): 21 May 2019 12:03:37
Eccentricity: 0.0011642
inclination: 19.9707°
perigee height: 849 km
apogee height: 865 km
right ascension of ascending node: 201.9118°
argument of perigee: 247.0287°
revolutions per day: 14.10631908
mean anomaly at epoch: 241.5241°
orbit number at epoch: 39261

The dashed part of the orbit path shows where the satellite is in the earth's shadow,  

DLR